Regional Weather Roundup
Issued by NWS

Home | Current Version | Previous Version | Text Only | Print | Product List | Glossary Off
Versions: 1 2 3 4 5 6 7 8 9 10 11 12 13 14 15 16 17 18 19 20 21 22 23 24 25 26 27 28 29 30 31 32 33 34 35 36 37 38 39 40 41 42 43 44 45 46 47 48 49 50

000
ASUS45 KABQ 262201
RWRNM
NEW MEXICO REGIONAL WEATHER ROUNDUP
NATIONAL WEATHER SERVICE ALBUQUERQUE NM
400 PM MDT MON JUN 26 2017

NOTE: "FAIR" MEANS FEW OR NO CLOUDS BELOW 12,000 FEET AGL WITH NO
       SIGNIFICANT WEATHER OR OBSTRUCTIONS TO VISION.

      THIS PRODUCT IS RELEASED AS TWO VERSIONS.  ONE VERSION NEAR
      THE TOP OF THE HOUR CONTAINING PRELIMINARY DATA FROM ALBUQUERQUE
      AND OTHER STATIONS.  A FINAL VERSION WITH ADDITIONAL DATA IS
      ISSUED ABOUT 10 MINUTES AFTER THE HOUR.

NMZ501-503-504-510>518-262300-
NORTHWEST PLATEAU/NORTHCENTRAL MOUNTAINS

CITY           SKY/WX    TMP DP  RH WIND       PRES   REMARKS
FARMINGTON     FAIR      93  26   9 VRB7      30.11F
LOS ALAMOS     LGT RAIN  65  52  61 SW10      30.32S
SANTA FE       LGT RAIN  82  26  13 SW14G21   30.23S
TAOS           FAIR      79  25  13 NW7       30.29S
ANGEL FIRE     LGT RAIN  50  43  75 W5        30.44R

$$
NMZ402-403-502-505>509-262300-
WESTCENTRAL MOUNTAINS/SOUTHWEST MOUNTAINS

CITY           SKY/WX    TMP DP  RH WIND       PRES   REMARKS
GALLUP         FAIR      85  36  17 E16       30.23F
GRANTS         FAIR      83  32  16 S7G18     30.26F
SILVER CITY    FAIR      86  48  27 E7        30.20S THUNDER

$$
NMZ407-409-411-412-262300-
SOUTHERN DESERTS

CITY           SKY/WX    TMP DP  RH WIND       PRES   REMARKS
DEMING         FAIR      92  50  23 VRB7      30.11F
LAS CRUCES     FAIR      91  54  28 SE10      30.14F
ALAMOGORDO     FAIR      90  54  29 SE6G17    30.12F
T OR C         FAIR      91  46  21 S10G21    30.12F

$$
NMZ519>523-262300-
CENTRAL VALLEYS/CENTRAL HIGHLANDS

CITY           SKY/WX    TMP DP  RH WIND       PRES   REMARKS
ALBUQUERQUE    FAIR      89  40  17 W6        30.15F
DOUBLE EAGLE   PTSUNNY   86  45  23 SW13      30.20F
MORIARTY ARPT  FAIR      82  50  31 E12       30.23F
CLINES CORNERS FAIR      75  54  47 E12       30.32F
BELEN          NOT AVBL
SOCORRO        FAIR      89  48  24 SE14      30.12F

$$
NMZ524>526-539-540-262300-
SOUTHCENTRAL MOUNTAINS

CITY           SKY/WX    TMP DP  RH WIND       PRES   REMARKS
RUIDOSO        CLOUDY    70  55  60 S12       30.35R

$$
NMZ527>531-262300-
NORTHEAST HIGHLANDS/NORTHEAST PLAINS

CITY           SKY/WX    TMP DP  RH WIND       PRES   REMARKS
LAS VEGAS      FAIR      66  54  65 S12       30.33R
RATON          FAIR      79  53  40 SW13      30.24F
CLAYTON        FAIR      83  52  34 SW16G25   30.17F

$$
NMZ532>537-262300-
EASTCENTRAL PLAINS

CITY           SKY/WX    TMP DP  RH WIND       PRES   REMARKS
SANTA ROSA     FAIR      82  53  37 S13       30.17F
TUCUMCARI      FAIR      88  53  30 SE7       30.11F
CANNON AFB     FAIR      83  59  42 SE13      30.18F
CLOVIS AIRPORT FAIR      83  58  42 SE14G20   30.18F

$$
NMZ028-029-538-262300-
SOUTHEAST PLAINS

CITY           SKY/WX    TMP DP  RH WIND       PRES   REMARKS
ROSWELL        FAIR      86  57  37 E7        30.13F
ARTESIA        FAIR      86  61  42 SE8       30.13F
CARLSBAD       FAIR      83  65  54 E5        30.10F
HOBBS          MOSUNNY   84  57  39 N7        30.13F


$$



USA.gov is the U.S. government's official web portal to all federal, state and local government web resources and services.